[[{"header":{"parameterUnit":"m.s-1","parameterCategory":2,"la1":30.2991,"la2":30.254,"lo1":-89.0895,"lo2":-89.0444,"dy":0.0017,"dx":0.0017,"nx":28,"ny":28,"refTime":"2024-02-12T09:00:00:Z","depth":"0","parameterNumber":2,"parameterNumberName":"U-component_of_CURRENTS"},"data":[0,0,0,0,0,0,0,0,0,0,0,0,0,0,0,0,0,0,0,0,0,0,0,0,0,0,0,0,0,0,0,0,0,0,0,0,0,0,0,0,0,0,0,0,0,0,0,0,0,0,0,0,0,0,0,0,0,0,0.2479,0.248,0,0.2547,0.2548,0.2549,0.2595,0.2595,0.2595,0.2596,0.2654,0.2655,0.2657,0,0,0,0,0,0,0,0,0,0,0,0,0,0.2412,0.2413,0.2479,0.248,0.248,0.2547,0.2548,0.2549,0.2595,0.2595,0.2595,0.2596,0.2654,0.2655,0.2657,0,0,0,0,0,0,0,0,0,0,0,0,0,0.2457,0.2413,0.2479,0.2511,0.2515,0.2547,0.2548,0.2549,0.2595,0.2595,0.2595,0.2596,0.2653,0.2655,0.2657,0.266,0,0,0.2663,0.2664,0,0,0,0,0,0,0,0,0.2454,0.2459,0.2506,0.2509,0.2513,0.2563,0.2546,0.2586,0.2594,0.2564,0.2596,0.2596,0.2622,0.2627,0.2639,0.2662,0.2665,0.2663,0.2664,0.2665,0.2666,0,0,0,0,0,0,0,0.2451,0.2456,0.2506,0.2506,0.2511,0.2531,0.2537,0.2554,0.259,0.2567,0.257,0.2578,0.2624,0.2637,0.2641,0.2666,0.2663,0.2665,0.2666,0.2667,0.272,0.272,0,0,0,0,0,0,0.244,0.2453,0.2504,0.2508,0.2484,0.2531,0.2539,0.2546,0.259,0.2597,0.2577,0.258,0.2634,0.2638,0.2643,0.2682,0.2665,0.2667,0.2668,0.272,0.272,0.272,0,0,0,0,0,0,0.2439,0.2444,0.2501,0.2482,0.2491,0.2532,0.254,0.2548,0.2567,0.2598,0.2605,0.2589,0.2634,0.264,0.2669,0.2683,0.2668,0.2669,0.272,0.272,0.272,0.2739,0,0,0,0,0,0,0.2436,0.2443,0.2447,0.2481,0.2491,0.253,0.254,0.2549,0.257,0.2574,0.261,0.2616,0.2635,0.2666,0.2671,0.2686,0.2671,0.2719,0.272,0.272,0.2738,0.274,0.2742,0,0,0,0,0,0.2434,0.244,0.2447,0.2453,0.2495,0.253,0.2538,0.2568,0.257,0.2585,0.2608,0.2615,0.2673,0.2669,0.2674,0.2689,0.2719,0.272,0.272,0.2737,0.274,0.2742,0,0,0,0,0,0,0.2416,0.2446,0.2454,0.247,0.2501,0.2538,0.2555,0.2567,0.2597,0.2599,0.2623,0.2631,0.2663,0.2668,0.2662,0.2704,0.2695,0.2697,0.2706,0.2709,0.271,0.2732,0.2672,0,0,0,0,0,0.2411,0.2423,0.2457,0.247,0.2486,0.2517,0.2534,0.2553,0.2582,0.2596,0.2618,0.264,0.2668,0.2682,0.2705,0.2726,0.2745,0.2737,0.2739,0.274,0.276,0.2794,0.2801,0.2723,0.2722,0.2722,0,0,0.2407,0.2426,0.2433,0.2467,0.2493,0.2525,0.253,0.2558,0.2587,0.2596,0.2636,0.265,0.2675,0.2707,0.2721,0.2714,0.2771,0.2741,0.2742,0.2762,0.2795,0.2803,0.281,0.2723,0.2723,0.2723,0,0,0.2415,0.2424,0.2443,0.2469,0.2506,0.2529,0.2536,0.2572,0.2593,0.2625,0.2642,0.2667,0.2699,0.2728,0.2745,0.2767,0.2782,0.2764,0.2792,0.2823,0.2831,0.2837,0.2868,0.2878,0.2762,0.2762,0.2762,0,0.2413,0.2441,0.2455,0.2485,0.2512,0.253,0.2566,0.2589,0.2629,0.2653,0.2641,0.2704,0.2716,0.2773,0.2779,0.2775,0.2793,0.2782,0.2827,0.2834,0.2841,0.2871,0.2881,0.2763,0.2763,0.2763,0.2763,0,0.2442,0.2466,0.2482,0.2527,0.2554,0.2586,0.262,0.2646,0.266,0.2686,0.2735,0.275,0.2794,0.2789,0.2794,0.2845,0.2844,0.2828,0.2825,0.285,0.288,0.289,0.2765,0.2764,0.2764,0.2764,0,0,0.2442,0.2493,0.25,0.2528,0.258,0.2606,0.2653,0.2709,0.2749,0.2767,0.2819,0.2851,0.2856,0.2876,0.2877,0.2895,0.2945,0.2881,0.2882,0.2917,0.302,0.3103,0.3122,0.2936,0.2938,0.2939,0.3021,0,0.247,0.2525,0.2546,0.2603,0.2641,0.2671,0.2717,0.2763,0.28,0.2848,0.2866,0.2911,0.289,0.2908,0.2927,0.2948,0.2973,0.2925,0.2986,0.2988,0.3064,0.3138,0.3273,0.3366,0.3031,0.3033,0.3034,0,0.2501,0.2537,0.2593,0.2653,0.2672,0.2703,0.2783,0.2827,0.2897,0.2924,0.2971,0.2986,0.3035,0.2993,0.306,0.303,0.3035,0.3036,0.3039,0.3125,0.3092,0.3287,0.3397,0.346,0.3049,0.3048,0.3047,0,0.2507,0.2571,0.2615,0.2637,0.2706,0.2736,0.2775,0.2851,0.2909,0.2975,0.3026,0.307,0.3116,0.3122,0.3149,0.3103,0.3216,0.315,0.3231,0.3236,0.3372,0.3386,0.3563,0.3198,0.3198,0.3198,0.3198,0,0.2534,0.2569,0.2617,0.2643,0.2703,0.2743,0.2822,0.2867,0.2954,0.3035,0.3065,0.3149,0.3153,0.3218,0.3195,0.3283,0.3264,0.3275,0.3281,0.3381,0.3394,0.347,0.3431,0.3201,0.32,0.32,0.3199,0,0.2533,0.2567,0.262,0.2684,0.2707,0.2748,0.2849,0.2901,0.299,0.3097,0.3124,0.3237,0.3343,0.3361,0.3401,0.3385,0.339,0.3443,0.3567,0.3587,0.3701,0.3657,0.3435,0.3368,0.3541,0.3544,0.3546,0,0.2536,0.2562,0.2636,0.2664,0.269,0.2761,0.2807,0.2905,0.297,0.3163,0.3207,0.3365,0.3492,0.3619,0.3655,0.3689,0.3526,0.378,0.3717,0.3777,0.373,0.3351,0.3282,0.3892,0.3897,0.3901,0.3905,0,0.2534,0.2557,0.2593,0.2657,0.2701,0.2769,0.2843,0.2909,0.3037,0.3165,0.3354,0.3485,0.3697,0.3873,0.3947,0.3938,0.3714,0.3864,0.3908,0.4029,0.3645,0.3566,0.375,0.3941,0.3938,0.3935,0.3933,0.3932,0.2517,0.2537,0.2582,0.2641,0.2692,0.2754,0.28,0.2905,0.3046,0.3244,0.3421,0.3685,0.4041,0.4218,0.4158,0.4299,0.3958,0.4283,0.4225,0.383,0.3769,0.4038,0.4241,0.424,0.4238,0.4237,0.4235,0,0.2485,0.2511,0.2561,0.2623,0.2662,0.2708,0.28,0.2853,0.2998,0.3289,0.3509,0.4044,0.4344,0.4534,0.4802,0.4731,0.4367,0.4639,0.4219,0.4135,0.446,0.4498,0.4791,0.4791,0.4791,0.4791,0.4791,0.4791,0.2465,0.2486,0.252,0.2577,0.2617,0.266,0.2703,0.2807,0.3006,0.3375,0.3721,0.397,0.4469,0.4961,0.5124,0.5022,0.4667,0.4482,0.4288,0.4714,0.4676,0.464,0.4673,0.4998,0.4998,0.3878,0.3871,0.3866]},{"header":{"parameterUnit":"m.s-1","parameterCategory":2,"la1":30.2991,"la2":30.254,"lo1":-89.0895,"lo2":-89.0444,"dy":0.0017,"dx":0.0017,"nx":28,"ny":28,"refTime":"2024-02-12T09:00:00:Z","depth":"0","parameterNumber":3,"parameterNumberName":"V-component_of_CURRENTS"},"data":[0,0,0,0,0,0,0,0,0,0,0,0,0,0,0,0,0,0,0,0,0,0,0,0,0,0,0,0,0,0,0,0,0,0,0,0,0,0,0,0,0,0,0,0,0,0,0,0,0,0,0,0,0,0,0,0,0,0,0.0023,0.0023,0,-0.0,-0.0001,-0.0001,-0.0042,-0.0042,-0.0043,-0.0043,-0.0117,-0.0118,-0.0119,0,0,0,0,0,0,0,0,0,0,0,0,0,-0.0004,-0.0004,0.0023,0.0023,0.0023,-0.0,-0.0001,-0.0001,-0.0042,-0.0042,-0.0043,-0.0044,-0.0116,-0.0118,-0.0119,0,0,0,0,0,0,0,0,0,0,0,0,0,-0.0008,-0.0003,0.0023,0.0001,-0.0001,-0.0,-0.0001,-0.0001,-0.0041,-0.0042,-0.0043,-0.0044,-0.0115,-0.0118,-0.012,-0.0115,0,0,-0.0126,-0.0127,0,0,0,0,0,0,0,0,-0.0008,-0.0008,0.0005,0.0003,0.0001,-0.0017,-0.0037,-0.0041,-0.0041,-0.0028,-0.0043,-0.0044,-0.0086,-0.0091,-0.0095,-0.0119,-0.0122,-0.0126,-0.0128,-0.0128,-0.0129,0,0,0,0,0,0,0,-0.0008,-0.0007,0.0012,0.0005,0.0002,-0.002,-0.0021,-0.0038,-0.0054,-0.0029,-0.0032,-0.0031,-0.0088,-0.0093,-0.0097,-0.0123,-0.0126,-0.0128,-0.0129,-0.013,-0.0156,-0.0155,0,0,0,0,0,0,0.0002,-0.0006,0.0012,0.0011,-0.0004,-0.0018,-0.002,-0.0012,-0.0053,-0.0059,-0.003,-0.0033,-0.0089,-0.0095,-0.01,-0.0098,-0.0128,-0.013,-0.0132,-0.0156,-0.0156,-0.0155,0,0,0,0,0,0,0.0002,0.0005,0.0013,0.0003,0.0003,-0.0016,-0.0008,-0.0012,-0.002,-0.0053,-0.0061,-0.0033,-0.009,-0.0097,-0.0113,-0.0102,-0.0131,-0.0133,-0.0157,-0.0156,-0.0155,-0.0095,0,0,0,0,0,0,0.0001,0.0005,0.0013,0.0004,0.0004,0.002,-0.0007,-0.0012,-0.0017,-0.002,-0.0058,-0.0065,-0.0091,-0.0109,-0.0115,-0.0105,-0.0135,-0.0158,-0.0157,-0.0155,-0.0097,-0.0092,-0.0087,0,0,0,0,0,0.0001,0.0021,0.0013,0.0016,0.0016,0.0021,0.0019,0.0,-0.0016,-0.0012,-0.0039,-0.0064,-0.0106,-0.011,-0.0117,-0.0108,-0.0158,-0.0157,-0.0156,-0.01,-0.0093,-0.0087,0,0,0,0,0,0,0.0014,0.0019,0.001,0.003,0.0027,0.0015,0.0019,0.0005,-0.0012,-0.0019,-0.0056,-0.0065,-0.0075,-0.0098,-0.0101,-0.0112,-0.0136,-0.0136,-0.0092,-0.0085,-0.008,-0.0067,-0.0137,0,0,0,0,0,0.0022,0.0036,0.0033,0.0048,0.005,0.0034,0.0033,0.0022,0.0007,-0.0002,-0.0027,-0.0054,-0.0073,-0.0084,-0.0105,-0.0108,-0.0136,-0.0107,-0.0102,-0.0097,-0.0091,-0.0123,-0.012,-0.0151,-0.0151,-0.0151,0,0,0.0031,0.0035,0.0042,0.0051,0.0046,0.0059,0.0031,0.0035,0.0042,-0.0007,-0.0008,-0.0037,-0.0071,-0.0076,-0.0082,-0.0094,-0.0102,-0.0096,-0.0091,-0.0087,-0.0121,-0.0119,-0.0116,-0.015,-0.015,-0.015,0,0,0.0059,0.006,0.0081,0.0083,0.0085,0.0078,0.0082,0.0073,0.0064,0.0062,0.0027,0.0007,-0.002,-0.004,-0.0055,-0.0032,-0.0075,-0.004,-0.0002,-0.0034,-0.0031,-0.003,-0.0058,-0.0059,-0.0036,-0.0036,-0.0036,0,0.0067,0.0097,0.0087,0.0107,0.0116,0.0091,0.0115,0.0106,0.0091,0.009,0.0069,0.003,-0.0001,-0.0009,-0.0004,-0.002,-0.0045,-0.0023,-0.0027,-0.0026,-0.0025,-0.0054,-0.0057,-0.0033,-0.0034,-0.0034,-0.0034,0,0.0111,0.0132,0.0146,0.0163,0.017,0.0187,0.0178,0.0178,0.0162,0.0151,0.0139,0.0096,0.0074,0.0059,0.0033,0.0026,0.0005,-0.0017,-0.0042,-0.0019,-0.0051,-0.0054,-0.0029,-0.003,-0.0031,-0.0032,0,0,0.0136,0.0171,0.0175,0.0197,0.0203,0.0217,0.0228,0.0237,0.0251,0.0219,0.0231,0.0186,0.0158,0.014,0.0102,0.0073,0.0051,0.0034,0.0031,0.0009,-0.0017,-0.0042,-0.0049,0.0026,0.0025,0.0025,-0.0039,0,0.0174,0.0231,0.0233,0.028,0.0311,0.0295,0.0314,0.0312,0.0302,0.0305,0.0254,0.0246,0.0191,0.0182,0.0144,0.0081,0.0044,0.0071,-0.0038,-0.0041,-0.0065,-0.0053,0.0047,-0.0003,-0.0043,-0.0044,-0.0044,0,0.0218,0.0254,0.0312,0.0355,0.0366,0.0384,0.0412,0.0428,0.0417,0.0406,0.0378,0.0336,0.0295,0.024,0.0139,0.0159,0.0076,0.0017,0.0013,-0.0034,-0.0073,-0.0034,-0.0008,-0.0194,-0.005,-0.005,-0.0049,0,0.0256,0.0309,0.0361,0.0375,0.0415,0.0433,0.0453,0.0459,0.0491,0.047,0.0485,0.0414,0.0397,0.0285,0.0164,0.0149,0.0049,0.0011,-0.0094,-0.0097,-0.0044,-0.0042,-0.0207,-0.0074,-0.0074,-0.0073,-0.0073,0,0.0302,0.0344,0.0384,0.0415,0.0482,0.0485,0.0552,0.0553,0.0575,0.0636,0.0546,0.0575,0.0407,0.0331,0.0196,0.0053,0.0071,-0.0084,-0.0114,-0.002,-0.0016,-0.0203,-0.0331,-0.0076,-0.0075,-0.0075,-0.0074,0,0.0338,0.0364,0.043,0.0482,0.0505,0.0554,0.0631,0.0681,0.0684,0.0758,0.0757,0.0698,0.0608,0.0432,0.0261,0.0111,-0.0132,-0.0099,0.0022,0.0006,-0.0283,-0.041,-0.0583,-0.0693,-0.023,-0.0231,-0.0232,0,0.0362,0.0401,0.0484,0.0534,0.0561,0.0638,0.0702,0.0734,0.0803,0.0855,0.0905,0.0829,0.0833,0.056,0.0293,0.0046,-0.0145,-0.0079,-0.0105,-0.0288,-0.0452,-0.0507,-0.0592,-0.0007,-0.0006,-0.0005,-0.0004,0,0.0409,0.0436,0.0494,0.0603,0.0678,0.0779,0.0875,0.0952,0.1014,0.1094,0.1203,0.121,0.0958,0.0784,0.0394,0.0194,-0.0194,-0.0073,-0.0281,-0.0313,-0.0361,-0.0483,0.0012,0.0004,0.0003,0.0002,0.0002,0.0001,0.0441,0.0494,0.0577,0.0681,0.0778,0.0922,0.1041,0.1168,0.1325,0.1522,0.1493,0.1661,0.1318,0.0828,0.0396,-0.0155,-0.0177,-0.0261,-0.0405,-0.0447,-0.0546,-0.0048,-0.0088,-0.0089,-0.009,-0.0091,-0.0092,0,0.0489,0.0556,0.0654,0.0794,0.0923,0.0965,0.1163,0.1329,0.157,0.1821,0.1983,0.2119,0.1589,0.101,0.0243,-0.0307,-0.0532,-0.059,-0.0636,-0.0717,-0.0265,-0.0249,-0.0301,-0.0301,-0.0301,-0.0301,-0.0301,-0.03,0.0517,0.0623,0.0682,0.0899,0.1007,0.1223,0.1361,0.1629,0.1891,0.2366,0.2688,0.2851,0.2684,0.1018,-0.0122,-0.0522,-0.0978,-0.1032,-0.1293,-0.097,-0.0949,-0.093,-0.0944,-0.1141,-0.1142,-0.1604,-0.161,-0.1614]}],[{"header":{"parameterUnit":"m.s-1","parameterCategory":2,"la1":30.2991,"la2":30.254,"lo1":-89.0895,"lo2":-89.0444,"dy":0.0017,"dx":0.0017,"nx":28,"ny":28,"refTime":"2024-02-12T09:00:00:Z","depth":"2","parameterNumber":2,"parameterNumberName":"U-component_of_CURRENTS"},"data":[0,0,0,0,0,0,0,0,0,0,0,0,0,0,0,0,0,0,0,0,0,0,0,0,0,0,0,0,0,0,0,0,0,0,0,0,0,0,0,0,0,0,0,0,0,0,0,0,0,0,0,0,0,0,0,0,0,0,0.2422,0.2423,0,0.2485,0.2486,0.2487,0.2527,0.2528,0.2528,0.2528,0.2593,0.2594,0.2596,0,0,0,0,0,0,0,0,0,0,0,0,0,0.2357,0.2358,0.2422,0.2423,0.2424,0.2485,0.2486,0.2487,0.2527,0.2528,0.2528,0.2528,0.2593,0.2594,0.2596,0,0,0,0,0,0,0,0,0,0,0,0,0,0.2399,0.2358,0.2422,0.2451,0.2455,0.2485,0.2486,0.2487,0.2527,0.2528,0.2528,0.2528,0.2592,0.2594,0.2596,0.2603,0,0,0.2603,0.2604,0,0,0,0,0,0,0,0,0.2397,0.2401,0.2446,0.2449,0.2453,0.2499,0.2487,0.2526,0.2527,0.25,0.2528,0.2529,0.2561,0.2566,0.2577,0.2606,0.2609,0.2603,0.2605,0.2606,0.2606,0,0,0,0,0,0,0,0.2394,0.2399,0.2447,0.2447,0.2451,0.2468,0.2474,0.2495,0.2528,0.2502,0.2505,0.2512,0.2563,0.2575,0.2579,0.261,0.2603,0.2605,0.2607,0.2608,0.2669,0.267,0,0,0,0,0,0,0.2384,0.2396,0.2445,0.2449,0.2425,0.2469,0.2476,0.2484,0.2528,0.2535,0.2512,0.2514,0.2571,0.2576,0.2582,0.2624,0.2606,0.2608,0.2609,0.2669,0.2669,0.267,0,0,0,0,0,0,0.2383,0.2388,0.2443,0.2424,0.2432,0.247,0.2478,0.2485,0.2504,0.2535,0.2542,0.2525,0.2571,0.2578,0.261,0.2626,0.2609,0.2611,0.2669,0.2669,0.267,0.2689,0,0,0,0,0,0,0.2381,0.2387,0.2393,0.2423,0.2433,0.2472,0.2478,0.2486,0.2507,0.2511,0.2548,0.2554,0.2572,0.2607,0.2613,0.2629,0.2613,0.2668,0.2669,0.267,0.2688,0.269,0.2692,0,0,0,0,0,0.2378,0.2387,0.2393,0.2399,0.2438,0.2473,0.248,0.2507,0.2507,0.2523,0.2546,0.2553,0.2614,0.2609,0.2616,0.2633,0.2668,0.2669,0.2669,0.2687,0.269,0.2692,0,0,0,0,0,0,0.2365,0.2393,0.24,0.2417,0.2446,0.248,0.2497,0.2507,0.2537,0.2539,0.2562,0.257,0.2605,0.2611,0.2605,0.265,0.264,0.2642,0.2652,0.2654,0.2656,0.2677,0.2615,0,0,0,0,0,0.2362,0.2374,0.2405,0.242,0.2435,0.2464,0.248,0.2497,0.2525,0.2538,0.256,0.2583,0.2611,0.2626,0.2651,0.2675,0.2694,0.2687,0.2689,0.2691,0.2711,0.2744,0.2751,0.2672,0.2672,0.2672,0,0,0.2359,0.2377,0.2384,0.2418,0.2442,0.2474,0.2475,0.2504,0.2532,0.254,0.258,0.2594,0.2619,0.2653,0.2668,0.2661,0.2722,0.2691,0.2693,0.2713,0.2745,0.2753,0.276,0.2672,0.2672,0.2672,0,0,0.237,0.238,0.24,0.2425,0.2461,0.2481,0.2489,0.2523,0.2542,0.2575,0.259,0.2615,0.2649,0.2677,0.2693,0.2718,0.2732,0.2715,0.2744,0.2775,0.2782,0.2789,0.2819,0.2829,0.2714,0.2714,0.2714,0,0.237,0.2399,0.2412,0.2442,0.2469,0.2485,0.252,0.2542,0.258,0.2604,0.2592,0.2654,0.2666,0.2723,0.2729,0.2726,0.2744,0.2734,0.2779,0.2786,0.2793,0.2822,0.2832,0.2715,0.2715,0.2715,0.2715,0,0.2401,0.2427,0.2443,0.2486,0.2513,0.2545,0.2577,0.2603,0.2616,0.2641,0.269,0.2704,0.2746,0.2742,0.2746,0.2798,0.2796,0.278,0.2776,0.2802,0.2831,0.2841,0.2716,0.2716,0.2716,0.2715,0,0,0.2405,0.2455,0.2462,0.249,0.2541,0.2566,0.2613,0.2668,0.2707,0.2725,0.2776,0.2807,0.2811,0.283,0.283,0.2848,0.2898,0.2833,0.2834,0.287,0.2971,0.3053,0.3071,0.2888,0.289,0.2891,0.2972,0,0.2434,0.249,0.2509,0.2567,0.2604,0.2634,0.2679,0.2724,0.2759,0.2807,0.2823,0.2867,0.2846,0.2863,0.2882,0.2901,0.2926,0.2878,0.2937,0.2939,0.3014,0.3087,0.2736,0.2787,0.2982,0.2984,0.2985,0,0.2467,0.2501,0.2558,0.2617,0.2636,0.2667,0.2746,0.2789,0.2857,0.2884,0.293,0.2943,0.2991,0.2949,0.3014,0.2985,0.2989,0.2989,0.2992,0.3075,0.3041,0.2793,0.2798,0.3002,0.3001,0.2999,0.2998,0,0.2473,0.2537,0.2581,0.2603,0.267,0.27,0.2739,0.2813,0.2871,0.2936,0.2986,0.3029,0.3074,0.3078,0.3103,0.3058,0.3168,0.3101,0.318,0.3185,0.2906,0.2885,0.3149,0.3149,0.3148,0.3148,0.3148,0,0.2501,0.2536,0.2583,0.2609,0.2669,0.2708,0.2787,0.2832,0.2917,0.2997,0.3026,0.3109,0.311,0.3173,0.3149,0.3234,0.3216,0.3224,0.3229,0.2905,0.2884,0.308,0.3071,0.3151,0.3151,0.315,0.3149,0,0.25,0.2534,0.2587,0.265,0.2673,0.2714,0.2815,0.2866,0.2955,0.3061,0.3087,0.3197,0.3301,0.3315,0.3352,0.3335,0.3365,0.339,0.3028,0.2994,0.3337,0.3328,0.3478,0.3482,0.3485,0.3488,0.349,0,0.2503,0.253,0.2604,0.2631,0.2657,0.2728,0.2774,0.2871,0.2935,0.3126,0.3169,0.3325,0.3418,0.354,0.3444,0.3437,0.3516,0.3218,0.3088,0.3391,0.3379,0.3365,0.3351,0.2691,0.2687,0.2683,0.2681,0,0.2502,0.2525,0.256,0.2625,0.2668,0.2736,0.281,0.2876,0.3003,0.3088,0.3275,0.3374,0.3472,0.334,0.3356,0.3294,0.3188,0.3159,0.3538,0.2717,0.2671,0.2654,0.2661,0.2649,0.2652,0.2654,0.2656,0.2657,0.2485,0.2505,0.255,0.261,0.266,0.2721,0.2768,0.2722,0.2804,0.279,0.3115,0.3074,0.3172,0.2979,0.2937,0.2874,0.3092,0.2965,0.2964,0.297,0.292,0.2888,0.2895,0.2899,0.2903,0.2906,0.2909,0,0.2404,0.2479,0.2529,0.2591,0.2542,0.2677,0.2768,0.262,0.252,0.2526,0.2546,0.2403,0.2364,0.249,0.2314,0.2403,0.2212,0.2376,0.2082,0.2119,0.2151,0.2046,0.1795,0.1792,0.1789,0.1786,0,0,0.2371,0.2362,0.2395,0.2385,0.2478,0.2344,0.2382,0.2167,0.2047,0.1824,0.178,0.1922,0.2287,0.1897,0.1952,0.1859,0.1926,0.1764,0.2652,0.2329,0.2355,0.2498,0.2385,0,0,0,0,0]},{"header":{"parameterUnit":"m.s-1","parameterCategory":2,"la1":30.2991,"la2":30.254,"lo1":-89.0895,"lo2":-89.0444,"dy":0.0017,"dx":0.0017,"nx":28,"ny":28,"refTime":"2024-02-12T09:00:00:Z","depth":"2","parameterNumber":3,"parameterNumberName":"V-component_of_CURRENTS"},"data":[0,0,0,0,0,0,0,0,0,0,0,0,0,0,0,0,0,0,0,0,0,0,0,0,0,0,0,0,0,0,0,0,0,0,0,0,0,0,0,0,0,0,0,0,0,0,0,0,0,0,0,0,0,0,0,0,0,0,0.0044,0.0044,0,0.0023,0.0022,0.0022,-0.0017,-0.0017,-0.0018,-0.0018,-0.0093,-0.0095,-0.0096,0,0,0,0,0,0,0,0,0,0,0,0,0,0.0017,0.0018,0.0044,0.0044,0.0044,0.0023,0.0022,0.0022,-0.0017,-0.0017,-0.0018,-0.0019,-0.0093,-0.0095,-0.0096,0,0,0,0,0,0,0,0,0,0,0,0,0,0.0014,0.0018,0.0044,0.0024,0.0022,0.0023,0.0022,0.0022,-0.0017,-0.0017,-0.0018,-0.0019,-0.0092,-0.0094,-0.0097,-0.0094,0,0,-0.0103,-0.0104,0,0,0,0,0,0,0,0,0.0014,0.0014,0.0027,0.0025,0.0023,0.0006,-0.0015,-0.0019,-0.0016,-0.0004,-0.0019,-0.0019,-0.0063,-0.0068,-0.0072,-0.0097,-0.01,-0.0104,-0.0105,-0.0106,-0.0106,0,0,0,0,0,0,0,0.0014,0.0015,0.0034,0.0027,0.0025,0.0004,0.0002,-0.0016,-0.0031,-0.0005,-0.0008,-0.0007,-0.0065,-0.007,-0.0074,-0.0101,-0.0103,-0.0105,-0.0107,-0.0108,-0.0136,-0.0135,0,0,0,0,0,0,0.0024,0.0016,0.0034,0.0033,0.0019,0.0005,0.0004,0.0011,-0.003,-0.0036,-0.0006,-0.0008,-0.0065,-0.0071,-0.0077,-0.0076,-0.0106,-0.0108,-0.0109,-0.0136,-0.0136,-0.0135,0,0,0,0,0,0,0.0023,0.0026,0.0035,0.0025,0.0025,0.0007,0.0015,0.0011,0.0004,-0.0029,-0.0037,-0.0009,-0.0066,-0.0074,-0.009,-0.008,-0.0109,-0.0111,-0.0137,-0.0136,-0.0135,-0.0075,0,0,0,0,0,0,0.0023,0.0026,0.0034,0.0026,0.0026,0.0042,0.0016,0.0011,0.0007,0.0003,-0.0034,-0.0042,-0.0068,-0.0086,-0.0092,-0.0083,-0.0113,-0.0138,-0.0137,-0.0136,-0.0078,-0.0072,-0.0067,0,0,0,0,0,0.0022,0.0041,0.0034,0.0036,0.0037,0.0043,0.0041,0.0023,0.0008,0.0011,-0.0016,-0.0041,-0.0084,-0.0088,-0.0095,-0.0086,-0.0138,-0.0137,-0.0136,-0.008,-0.0073,-0.0067,0,0,0,0,0,0,0.0034,0.0039,0.0031,0.0051,0.0048,0.0037,0.0041,0.0027,0.001,0.0003,-0.0034,-0.0042,-0.0054,-0.0076,-0.0079,-0.0091,-0.0115,-0.0115,-0.007,-0.0064,-0.0059,-0.0046,-0.0114,0,0,0,0,0,0.0042,0.0055,0.0053,0.0067,0.0069,0.0054,0.0053,0.0043,0.0028,0.0019,-0.0006,-0.0033,-0.0052,-0.0063,-0.0084,-0.0088,-0.0116,-0.0088,-0.0082,-0.0078,-0.0071,-0.0103,-0.0101,-0.0131,-0.0131,-0.0131,0,0,0.005,0.0054,0.0061,0.007,0.0066,0.0079,0.0051,0.0056,0.0063,0.0014,0.0013,-0.0016,-0.0049,-0.0055,-0.0062,-0.0074,-0.0083,-0.0076,-0.0072,-0.0068,-0.0102,-0.0099,-0.0097,-0.013,-0.013,-0.013,0,0,0.0077,0.0078,0.0098,0.0101,0.0103,0.0097,0.01,0.0092,0.0084,0.0081,0.0047,0.0027,-0.0,-0.002,-0.0035,-0.0013,-0.0055,-0.0021,0.0016,-0.0015,-0.0013,-0.0011,-0.0039,-0.004,-0.0017,-0.0017,-0.0017,0,0.0084,0.0114,0.0104,0.0124,0.0133,0.0109,0.0133,0.0124,0.011,0.0109,0.0088,0.0049,0.0018,0.001,0.0016,-0.0001,-0.0026,-0.0004,-0.0008,-0.0007,-0.0007,-0.0036,-0.0038,-0.0014,-0.0015,-0.0015,-0.0015,0,0.0128,0.0148,0.0162,0.018,0.0186,0.0203,0.0195,0.0195,0.018,0.0169,0.0157,0.0114,0.0092,0.0078,0.0052,0.0045,0.0024,0.0002,-0.0023,0.0,-0.0032,-0.0036,-0.001,-0.0011,-0.0012,-0.0013,0,0,0.0152,0.0187,0.0191,0.0213,0.0219,0.0234,0.0244,0.0254,0.0268,0.0236,0.0248,0.0204,0.0176,0.0158,0.012,0.0091,0.007,0.0053,0.0049,0.0027,0.0002,-0.0024,-0.0031,0.0044,0.0044,0.0044,-0.0021,0,0.0189,0.0246,0.0248,0.0296,0.0327,0.0311,0.0329,0.0329,0.0318,0.0322,0.0271,0.0263,0.0209,0.0199,0.0162,0.0099,0.0062,0.0089,-0.0019,-0.0022,-0.0046,-0.0035,-0.0001,-0.0057,-0.0025,-0.0026,-0.0026,0,0.0233,0.0268,0.0327,0.037,0.0381,0.04,0.0428,0.0443,0.0433,0.0422,0.0395,0.0353,0.0312,0.0258,0.0157,0.0177,0.0094,0.0035,0.0031,-0.0016,-0.0055,-0.0076,-0.0065,-0.0033,-0.0032,-0.0032,-0.0031,0,0.0271,0.0323,0.0376,0.0389,0.043,0.0448,0.0469,0.0474,0.0507,0.0486,0.0502,0.0431,0.0414,0.0302,0.0182,0.0166,0.0067,0.0029,-0.0076,-0.0079,-0.0082,-0.0085,-0.0056,-0.0056,-0.0055,-0.0055,-0.0055,0,0.0317,0.0358,0.0399,0.0429,0.0496,0.05,0.0567,0.0568,0.0591,0.0651,0.0562,0.0591,0.0423,0.0348,0.0213,0.007,0.0088,-0.0067,-0.0097,-0.006,-0.006,-0.0066,-0.0066,-0.0058,-0.0057,-0.0057,-0.0056,0,0.0352,0.0378,0.0444,0.0496,0.052,0.0568,0.0646,0.0696,0.0699,0.0773,0.0772,0.0714,0.0623,0.0448,0.0277,0.0128,-0.002,-0.0082,-0.0027,-0.005,-0.0157,-0.0154,-0.021,-0.0212,-0.0213,-0.0214,-0.0215,0,0.0376,0.0415,0.0498,0.0548,0.0575,0.0652,0.0716,0.0749,0.0817,0.087,0.092,0.0844,0.0841,0.0569,0.0295,0.0045,-0.0005,-0.0131,-0.0166,-0.0149,-0.0173,-0.0167,-0.0162,-0.0146,-0.0146,-0.0146,-0.0146,0,0.0423,0.045,0.0508,0.0617,0.0691,0.0793,0.0889,0.0966,0.1028,0.1105,0.1214,0.1215,0.0953,0.0712,0.0315,0.0139,-0.0092,-0.0145,-0.0134,-0.0112,-0.0094,-0.0115,-0.0111,-0.0148,-0.0148,-0.0148,-0.0148,-0.0147,0.0455,0.0508,0.059,0.0695,0.0792,0.0935,0.1055,0.1178,0.1332,0.1478,0.1421,0.1431,0.1103,0.0636,0.0289,-0.0089,-0.0064,-0.022,-0.0217,-0.0214,-0.0195,-0.018,-0.0247,-0.0247,-0.0247,-0.0248,-0.0248,0,0.0516,0.057,0.0668,0.0808,0.0956,0.0978,0.1176,0.1338,0.1571,0.1654,0.1736,0.1428,0.108,0.0703,0.0158,-0.0181,-0.0201,-0.0306,-0.0259,-0.0254,-0.025,-0.0233,-0.0295,-0.0296,-0.0297,-0.0299,0,0,0.0548,0.0662,0.0721,0.095,0.1044,0.1285,0.1424,0.1644,0.1783,0.1935,0.1906,0.1734,0.1252,0.0824,0.0361,0.0044,-0.002,-0.002,0.006,0.018,0.0188,-0.0155,-0.0117,0,0,0,0,0]}],[{"header":{"parameterUnit":"m.s-1","parameterCategory":2,"la1":30.2991,"la2":30.254,"lo1":-89.0895,"lo2":-89.0444,"dy":0.0017,"dx":0.0017,"nx":28,"ny":28,"refTime":"2024-02-12T09:00:00:Z","depth":"4","parameterNumber":2,"parameterNumberName":"U-component_of_CURRENTS"},"data":[0,0,0,0,0,0,0,0,0,0,0,0,0,0,0,0,0,0,0,0,0,0,0,0,0,0,0,0,0,0,0,0,0,0,0,0,0,0,0,0,0,0,0,0,0,0,0,0,0,0,0,0,0,0,0,0,0,0,0.095,0.095,0,0.0967,0.0967,0.0967,0.0972,0.0972,0.0972,0.0972,0.1024,0.1025,0.1026,0,0,0,0,0,0,0,0,0,0,0,0,0,0.0868,0.0869,0.095,0.095,0.0951,0.0967,0.0967,0.0967,0.0972,0.0972,0.0972,0.0972,0.1023,0.1025,0.1026,0,0,0,0,0,0,0,0,0,0,0,0,0,0.0893,0.087,0.095,0.0957,0.0959,0.0967,0.0967,0.0967,0.0972,0.0972,0.0972,0.0972,0.1023,0.1025,0.1027,0.1032,0,0,0.1032,0.1033,0,0,0,0,0,0,0,0,0.0892,0.0896,0.0956,0.0957,0.0958,0.097,0.0957,0.0992,0.0971,0.0963,0.0972,0.0973,0.1011,0.1014,0.1011,0.1034,0.1036,0.1032,0.1033,0.1034,0.1035,0,0,0,0,0,0,0,0.089,0.0895,0.0953,0.0956,0.0958,0.0942,0.0946,0.0963,0.0983,0.0964,0.0965,0.0972,0.1012,0.101,0.1013,0.1037,0.1032,0.1034,0.1035,0.1036,0.1152,0.1154,0,0,0,0,0,0,0.0897,0.0894,0.0953,0.0954,0.0929,0.0944,0.0948,0.0964,0.0982,0.0986,0.0972,0.0972,0.1006,0.1011,0.1015,0.1099,0.1034,0.1036,0.1037,0.115,0.1152,0.1154,0,0,0,0,0,0,0.0896,0.0903,0.0952,0.0926,0.0932,0.0946,0.0962,0.0964,0.0997,0.0989,0.0993,0.1008,0.1007,0.1012,0.1056,0.1098,0.1036,0.1038,0.1147,0.115,0.1153,0.1218,0,0,0,0,0,0,0.0893,0.0902,0.093,0.0927,0.0934,0.0983,0.0962,0.0964,0.1,0.1002,0.1021,0.1023,0.1007,0.1054,0.1058,0.1099,0.104,0.1145,0.1149,0.1152,0.1213,0.1223,0.1231,0,0,0,0,0,0.089,0.0919,0.0931,0.0939,0.0967,0.0985,0.0987,0.0994,0.1002,0.1024,0.1035,0.1024,0.1081,0.1057,0.1061,0.1104,0.1143,0.1148,0.1152,0.1209,0.1221,0.1231,0,0,0,0,0,0,0.0902,0.0923,0.0935,0.0972,0.0992,0.0987,0.1012,0.102,0.1045,0.1057,0.1047,0.1051,0.1106,0.11,0.1074,0.115,0.1112,0.1118,0.1154,0.1165,0.1174,0.1185,0.1041,0,0,0,0,0,0.0918,0.0945,0.0962,0.0996,0.1011,0.1022,0.1037,0.1045,0.106,0.1072,0.1085,0.1102,0.1123,0.1141,0.1155,0.1198,0.1204,0.123,0.1239,0.1247,0.126,0.1302,0.1316,0.1169,0.1169,0.1169,0,0,0.093,0.0948,0.0965,0.1001,0.1017,0.1039,0.1032,0.1068,0.1093,0.1075,0.1125,0.1139,0.1142,0.1185,0.121,0.1189,0.1294,0.1252,0.1259,0.1268,0.1308,0.1323,0.1335,0.1172,0.1172,0.1171,0,0,0.0952,0.0991,0.1014,0.1037,0.1074,0.108,0.1102,0.1125,0.1147,0.1192,0.1187,0.1228,0.1259,0.1266,0.1273,0.1344,0.1341,0.1358,0.1411,0.1452,0.1464,0.1475,0.1506,0.152,0.136,0.1361,0.1361,0,0.097,0.1,0.1025,0.1053,0.1075,0.1104,0.1132,0.1157,0.1194,0.122,0.1222,0.1287,0.1294,0.1341,0.1367,0.1365,0.1387,0.1366,0.1463,0.1474,0.1484,0.1513,0.1527,0.1364,0.1364,0.1363,0.1363,0,0.0994,0.1032,0.1052,0.1093,0.1123,0.1157,0.1192,0.1237,0.1272,0.1292,0.1365,0.1379,0.1417,0.143,0.1422,0.1501,0.1493,0.1469,0.1433,0.1502,0.1529,0.1542,0.137,0.1368,0.1367,0.1366,0,0,0.0997,0.1055,0.1066,0.1088,0.115,0.1169,0.1233,0.1286,0.1333,0.1385,0.1444,0.1492,0.1517,0.1528,0.1533,0.1572,0.1662,0.1562,0.1563,0.1589,0.176,0.1661,0.1665,0.1659,0.1662,0.1664,0.1752,0,0.1011,0.1054,0.1087,0.1137,0.1161,0.1216,0.1268,0.1327,0.1382,0.145,0.1494,0.1555,0.1548,0.1584,0.1625,0.1659,0.17,0.164,0.1694,0.1695,0.1594,0.1678,0.1672,0.1761,0.1764,0.1766,0.1768,0,0.1021,0.1047,0.1093,0.1155,0.1175,0.1217,0.1308,0.136,0.146,0.1511,0.1586,0.1623,0.171,0.1685,0.1787,0.1755,0.1773,0.1786,0.1789,0.1683,0.162,0.1677,0.1791,0.1789,0.1787,0.1786,0.1784,0,0.0989,0.1052,0.1086,0.1109,0.1185,0.1232,0.1285,0.1384,0.1446,0.1563,0.1628,0.1714,0.1788,0.1828,0.1882,0.1847,0.1981,0.1923,0.1845,0.1838,0.1869,0.1856,0.1988,0.1988,0.1988,0.1987,0.1987,0,0.0978,0.1009,0.1078,0.1096,0.1153,0.122,0.1304,0.1374,0.1493,0.1568,0.1665,0.1742,0.1835,0.1918,0.1926,0.1945,0.2021,0.1878,0.1863,0.1894,0.1884,0.1878,0.1864,0.1991,0.199,0.1989,0.1989,0,0.0939,0.0985,0.1024,0.1106,0.1139,0.1183,0.131,0.1364,0.1496,0.1603,0.1652,0.1807,0.1917,0.1989,0.2072,0.2005,0.2021,0.2001,0.206,0.2042,0.1834,0.1823,0.1909,0.1907,0.1905,0.1903,0.1901,0,0.092,0.0936,0.1018,0.1041,0.1084,0.1163,0.1216,0.1352,0.1416,0.1622,0.1662,0.1834,0.1916,0.1967,0.204,0.2063,0.2028,0.201,0.1894,0.1854,0.1831,0.1823,0.1815,0.1898,0.1897,0.1897,0.1896,0,0.0874,0.0914,0.0941,0.0989,0.1041,0.1097,0.1189,0.1234,0.1391,0.1528,0.1639,0.1709,0.1838,0.1906,0.1963,0.1959,0.2004,0.1986,0.1988,0.1878,0.1841,0.1818,0.1813,0.1889,0.189,0.189,0.1891,0,0.084,0.0842,0.0881,0.0918,0.0973,0.1004,0.107,0.1154,0.1244,0.1465,0.1501,0.1676,0.1823,0.1856,0.19,0.1911,0.1853,0.1748,0.1761,0.1771,0.1685,0.1614,0.1601,0,0,0,0,0,0.0794,0.0782,0.0804,0.0828,0.088,0.0915,0.1033,0.1107,0.1266,0.13,0.1399,0.1506,0.1602,0.1699,0.1681,0.1827,0.1853,0.1794,0.1735,0.1847,0.1855,0.1767,0,0,0,0,0,0,0.0754,0.0768,0.0769,0.0747,0.0747,0.0796,0.0864,0.0976,0.1014,0.1186,0.126,0.1384,0.1516,0.1593,0.1641,0.1667,0.159,0.1903,0.1898,0.1842,0.185,0.1857,0.1769,0,0,0,0,0]},{"header":{"parameterUnit":"m.s-1","parameterCategory":2,"la1":30.2991,"la2":30.254,"lo1":-89.0895,"lo2":-89.0444,"dy":0.0017,"dx":0.0017,"nx":28,"ny":28,"refTime":"2024-02-12T09:00:00:Z","depth":"4","parameterNumber":3,"parameterNumberName":"V-component_of_CURRENTS"},"data":[0,0,0,0,0,0,0,0,0,0,0,0,0,0,0,0,0,0,0,0,0,0,0,0,0,0,0,0,0,0,0,0,0,0,0,0,0,0,0,0,0,0,0,0,0,0,0,0,0,0,0,0,0,0,0,0,0,0,0.0365,0.0365,0,0.0356,0.0356,0.0356,0.035,0.035,0.035,0.035,0.0308,0.0307,0.0306,0,0,0,0,0,0,0,0,0,0,0,0,0,0.0358,0.0358,0.0365,0.0365,0.0365,0.0356,0.0356,0.0356,0.035,0.035,0.035,0.035,0.0309,0.0307,0.0306,0,0,0,0,0,0,0,0,0,0,0,0,0,0.0356,0.0358,0.0365,0.0361,0.036,0.0356,0.0356,0.0356,0.035,0.035,0.035,0.035,0.0309,0.0307,0.0306,0.0298,0,0,0.0301,0.03,0,0,0,0,0,0,0,0,0.0356,0.0357,0.0361,0.0361,0.036,0.0354,0.0338,0.0334,0.035,0.0354,0.035,0.035,0.032,0.0318,0.0317,0.0296,0.0294,0.0301,0.03,0.0299,0.0299,0,0,0,0,0,0,0,0.0357,0.0357,0.0362,0.0361,0.0361,0.0352,0.0352,0.0337,0.0338,0.0354,0.0354,0.0352,0.032,0.0319,0.0316,0.0293,0.0301,0.0299,0.0299,0.0298,0.0255,0.0255,0,0,0,0,0,0,0.0358,0.0357,0.0362,0.0361,0.0358,0.0353,0.0353,0.0356,0.0338,0.0336,0.0352,0.0352,0.0322,0.0318,0.0314,0.031,0.0299,0.0298,0.0297,0.0255,0.0255,0.0254,0,0,0,0,0,0,0.0358,0.0359,0.0362,0.0358,0.0358,0.0353,0.0357,0.0356,0.0354,0.0337,0.0334,0.0351,0.0321,0.0317,0.0305,0.0308,0.0297,0.0296,0.0255,0.0255,0.0255,0.0297,0,0,0,0,0,0,0.0358,0.0359,0.0362,0.0359,0.0358,0.0364,0.0357,0.0356,0.0353,0.0352,0.0335,0.0331,0.0321,0.0308,0.0303,0.0306,0.0294,0.0255,0.0255,0.0255,0.0296,0.0299,0.0301,0,0,0,0,0,0.0358,0.0367,0.0362,0.0363,0.0363,0.0364,0.0364,0.036,0.0353,0.0356,0.0344,0.0332,0.0302,0.0306,0.0302,0.0304,0.0256,0.0255,0.0255,0.0295,0.0298,0.0301,0,0,0,0,0,0,0.0366,0.0367,0.0362,0.0371,0.0368,0.0364,0.0367,0.0359,0.0352,0.035,0.0332,0.0328,0.0319,0.0302,0.0307,0.0288,0.0275,0.0274,0.0308,0.031,0.0312,0.0328,0.0293,0,0,0,0,0,0.0369,0.0376,0.0372,0.0378,0.0378,0.037,0.0369,0.0365,0.0358,0.0355,0.0342,0.0325,0.0313,0.0305,0.0291,0.0282,0.0256,0.0277,0.0279,0.0282,0.029,0.0249,0.0248,0.0253,0.0253,0.0253,0,0,0.0374,0.0374,0.0379,0.038,0.0378,0.0386,0.037,0.0372,0.0379,0.0351,0.0354,0.0334,0.0312,0.0306,0.0299,0.0292,0.0266,0.0281,0.0283,0.0291,0.0248,0.0248,0.0247,0.0253,0.0253,0.0253,0,0,0.0392,0.0388,0.0402,0.0402,0.04,0.0396,0.0397,0.0391,0.0389,0.0385,0.0368,0.035,0.0331,0.0318,0.0308,0.0311,0.028,0.0303,0.0328,0.0287,0.0287,0.0286,0.0253,0.0249,0.0303,0.0303,0.0303,0,0.0397,0.0417,0.0405,0.0418,0.0425,0.0403,0.0421,0.0415,0.0406,0.0406,0.0392,0.0361,0.0338,0.0332,0.0334,0.0317,0.0291,0.0323,0.0291,0.029,0.0288,0.0254,0.0249,0.0305,0.0305,0.0305,0.0304,0,0.0427,0.0442,0.045,0.0462,0.0465,0.0476,0.0468,0.0466,0.0454,0.0445,0.0433,0.04,0.0383,0.0368,0.0354,0.0335,0.0319,0.03,0.0288,0.0291,0.0254,0.0248,0.0308,0.0307,0.0307,0.0306,0,0,0.0442,0.0468,0.0472,0.0492,0.0492,0.0502,0.0509,0.0514,0.0523,0.0494,0.05,0.0465,0.044,0.0427,0.0398,0.0362,0.0324,0.0332,0.0328,0.0306,0.0238,0.0218,0.0209,0.0299,0.0298,0.0298,0.0217,0,0.0471,0.0514,0.0516,0.0556,0.0579,0.0567,0.058,0.0576,0.0563,0.0558,0.0513,0.0504,0.0465,0.0456,0.0413,0.0351,0.031,0.0348,0.0233,0.023,0.0217,0.0202,0.0295,0.0212,0.0211,0.021,0.0209,0,0.0503,0.053,0.0579,0.0617,0.0626,0.0644,0.0664,0.0675,0.0654,0.0641,0.0612,0.0572,0.0526,0.0485,0.0376,0.0402,0.0326,0.0269,0.0264,0.0228,0.0198,0.0207,0.0198,0.0199,0.02,0.02,0.0201,0,0.0531,0.0576,0.0622,0.0634,0.0667,0.0689,0.0706,0.0702,0.0722,0.0694,0.0692,0.0624,0.0595,0.0492,0.0373,0.0372,0.0245,0.0225,0.0134,0.0131,0.0157,0.0158,0.0139,0.0139,0.0139,0.014,0.014,0,0.0564,0.0602,0.0643,0.0669,0.0731,0.0733,0.0789,0.0787,0.0792,0.0816,0.0742,0.0732,0.0594,0.0504,0.0388,0.0245,0.025,0.0137,0.0107,0.0176,0.018,0.0152,0.0155,0.0137,0.0137,0.0138,0.0138,0,0.0588,0.0614,0.0675,0.0725,0.075,0.0794,0.0859,0.089,0.0881,0.0907,0.09,0.0813,0.069,0.0543,0.0373,0.0271,0.0132,0.0077,0.0168,0.0145,0.0042,0.0048,-0.0031,-0.0033,-0.0034,-0.0035,-0.0036,0,0.0605,0.0639,0.0722,0.0766,0.0796,0.0865,0.0915,0.0939,0.0973,0.0956,0.0968,0.0857,0.0779,0.0534,0.0366,0.0136,0.0099,0.0024,0.0025,0.0045,0.0023,0.0031,0.0038,-0.0038,-0.0038,-0.0038,-0.0039,0,0.0637,0.0668,0.072,0.0816,0.0882,0.0964,0.1033,0.1064,0.1084,0.1072,0.1022,0.0883,0.0738,0.0538,0.0355,0.019,0.0072,0.0011,0.0012,0.0012,0.0036,0.0018,0.0026,-0.0043,-0.0042,-0.0042,-0.0042,0,0.0662,0.0706,0.0779,0.0861,0.0951,0.1036,0.1072,0.1107,0.114,0.1109,0.109,0.092,0.0824,0.0565,0.0399,0.023,0.0181,0.0124,0.0119,0.0121,0.0182,0.0236,0.0193,0,0,0,0,0,0.0682,0.0737,0.0818,0.0916,0.1002,0.1065,0.114,0.1162,0.1175,0.1151,0.1123,0.0984,0.0719,0.0606,0.0434,0.0365,0.0147,0.0155,0.0079,-0.0066,-0.0061,-0.0019,0,0,0,0,0,0,0.07,0.0778,0.0823,0.0945,0.1019,0.1128,0.1183,0.1192,0.118,0.1155,0.1024,0.0939,0.0691,0.0827,0.0433,0.0379,0.0303,0.0031,0.0026,-0.0069,-0.0065,-0.0061,-0.0015,0,0,0,0,0]}]]